Location: Titusville
(28.6120°N, 80.8080°W)
Time: 19:13:51
(UTC-04:00)

Amateur Radio Satellites - All Passes

Search period start: 21 October 2017 18:43
Search period end: 22 October 2017 18:43
Location: Titusville, 28.6120°N, 80.8080°W

Satellite Date Start Highest point End Downlink Frequencies (MHz)
Time Altitude Azimuth
XW-2C 21 Oct 18:54:23 18:58:11 85° 259° (W) 19:01:59 145.795 - 145.815
STARS 21 Oct 19:01:52 19:06:18 76° 101° (E) 19:10:43 437.465
PCSat 21 Oct 19:08:59 19:14:07 45° 251° (WSW) 19:19:14 145.827
HO-68 21 Oct 19:12:10 19:18:48 43° 69° (ENE) 19:25:28 435.675
KAITUO 1B 21 Oct 19:34:18 19:37:39 31° 262° (W) 19:40:59 145.475/437.950
XW-2F 21 Oct 19:39:01 19:41:56 21° 263° (W) 19:44:50 145.980 - 146.000
NUDT-PHONESAT 21 Oct 19:46:33 19:49:31 22° 263° (W) 19:52:28 437.300
LilacSat-2 21 Oct 19:48:07 19:50:13 14° 265° (W) 19:52:19 437.200
CUBEBUG 2 21 Oct 19:52:22 19:56:46 46° 75° (ENE) 20:01:18 437.445
YUBILEINY 21 Oct 19:53:24 19:58:18 16° 71° (ENE) 20:03:11 435.215
XW-2D 21 Oct 19:53:56 19:55:34 12° 265° (W) 19:57:11 145.860 - 145.880
ZACube-1 21 Oct 20:03:34 20:06:27 17° 70° (ENE) 20:09:20 437.345
CUTE-I 21 Oct 20:11:56 20:15:34 19° 264° (W) 20:19:12 437.470
CUTE 1.7 + AOD 2 21 Oct 20:13:47 20:17:52 48° 260° (W) 20:21:57 437.475
SEEDS 21 Oct 20:17:59 20:22:10 77° 260° (W) 20:26:19 437.485
O/OREOS (USA 219) 21 Oct 20:26:26 20:30:42 42° 104° (ESE) 20:35:01 437.305
UWE-3 21 Oct 20:27:17 20:31:52 66° 77° (ENE) 20:36:30 435.000/436.395/437.385
STRAND 1 21 Oct 20:31:19 20:36:23 55° 101° (E) 20:41:23 437.568
Oscar 11 21 Oct 20:37:16 20:40:40 23° 72° (ENE) 20:44:03 .
AAUSAT CUBESAT 2 21 Oct 20:37:33 20:41:37 72° 77° (ENE) 20:45:42 437.432
XW-2A 21 Oct 20:57:09 21:00:13 31° 261° (W) 21:03:19 145.665 - 145.685
HO-68 21 Oct 21:00:39 21:06:31 27° 262° (W) 21:12:27 435.675
AO-73 21 Oct 21:14:46 21:19:19 76° 259° (WSW) 21:23:54 145.935
BEESAT 3 21 Oct 21:26:49 21:30:16 28° 59° (ENE) 21:33:37 437.485
CUBEBUG 2 21 Oct 21:31:41 21:33:32 12° 267° (W) 21:35:24 437.445
ZACube-1 21 Oct 21:38:14 21:42:23 34° 262° (W) 21:46:32 437.345
YUBILEINY 21 Oct 21:47:02 21:55:51 80° 267° (W) 22:04:40 435.215
AO-85 21 Oct 21:48:57 21:51:01 13° 54° (NE) 21:53:08 145.980
DELFI C3 21 Oct 21:52:08 21:55:36 32° 75° (ENE) 21:59:06 145.870
FO-29 21 Oct 21:54:14 22:01:26 62° 101° (ESE) 22:09:07 435.910
O/OREOS (USA 219) 21 Oct 22:08:07 22:10:16 13° 298° (WNW) 22:12:25 437.305
STRAND 1 21 Oct 22:12:41 22:15:00 13° 293° (WNW) 22:17:18 437.568
Oscar 11 21 Oct 22:13:20 22:16:38 21° 264° (W) 22:19:57 .
EO-88 21 Oct 22:13:53 22:17:04 29° 74° (ENE) 22:20:14 145.990 - 145.960
Max Valier Satellite 21 Oct 22:26:38 22:30:20 70° 77° (ENE) 22:34:03 145.860
BEESAT 2 21 Oct 22:50:41 22:54:41 83° 62° (ENE) 22:58:38 435.950
LO-87 21 Oct 23:00:27 23:01:39 11° 70° (ENE) 23:02:52 145.935 - 145.965
BEESAT 3 21 Oct 23:05:19 23:07:28 14° 251° (WSW) 23:09:36 437.485
UNISAT 6 21 Oct 23:11:54 23:16:29 90° 276° (W) 23:20:55 437.425
TIGRISAT 21 Oct 23:26:18 23:30:49 66° 284° (WNW) 23:35:12 435.000
AO-85 21 Oct 23:26:57 23:31:40 61° 246° (WSW) 23:36:41 145.980
DELFI C3 21 Oct 23:29:04 23:30:23 11° 266° (W) 23:31:40 145.870
FO-29 21 Oct 23:40:43 23:45:55 22° 292° (WNW) 23:51:24 435.910
PRISM 21 Oct 23:47:51 23:52:00 83° 283° (WNW) 23:56:08 437.425
EO-88 21 Oct 23:49:40 23:50:41 11° 266° (W) 23:51:42 145.990 - 145.960
AIST 2D 22 Oct 00:04:34 00:07:37 29° 98° (E) 00:10:41 435.315
VELOX 1 22 Oct 00:14:35 00:15:07 10° 67° (ENE) 00:15:40 145.980
RS-15 22 Oct 00:15:40 00:27:22 56° 109° (ESE) 00:39:13 29.354- 29.394
QB50P2 22 Oct 00:15:49 00:18:22 15° 95° (E) 00:20:52 145.880/145.840
NANOSAT C BR1 22 Oct 00:18:03 00:19:49 12° 95° (E) 00:21:34 145.865
DUCHIFAT 1 22 Oct 00:27:24 00:29:39 14° 95° (E) 00:31:52 145.980
ESTCUBE 1 22 Oct 00:28:02 00:32:29 64° 259° (W) 00:36:56 437.505/2401.250
LO-87 22 Oct 00:31:37 00:34:42 27° 262° (W) 00:37:50 145.935 - 145.965
SPROUT 22 Oct 00:49:12 00:53:15 44° 75° (ENE) 00:57:20 437.525
DX 1 22 Oct 01:14:29 01:16:00 12° 68° (ENE) 01:17:32 434.975-435.025
EO-79 22 Oct 01:24:18 01:28:33 73° 283° (WNW) 01:32:44 145.935-145.965
POLYITAN 1 22 Oct 01:29:34 01:33:45 62° 284° (WNW) 01:37:55 437.675
UKube-1 22 Oct 01:34:40 01:36:27 12° 68° (ENE) 01:38:13 .
VELOX 1 22 Oct 01:46:49 01:51:03 50° 260° (W) 01:55:18 145.980
QB50P2 22 Oct 01:50:25 01:54:06 29° 287° (WNW) 01:57:46 145.880/145.840
NANOSAT C BR1 22 Oct 01:51:41 01:55:34 36° 286° (WNW) 01:59:25 145.865
DUCHIFAT 1 22 Oct 02:01:33 02:05:18 31° 287° (WNW) 02:09:00 145.980
BUGSAT 1 22 Oct 02:02:09 02:06:14 50° 100° (E) 02:10:15 437.445
Oscar 19 22 Oct 02:16:15 02:20:50 33° 99° (E) 02:25:23 437.125/150
50 SAT 22 Oct 02:21:53 02:25:05 59° 260° (W) 02:28:18 437.505
NO-84 22 Oct 02:22:25 02:26:36 64° 126° (SE) 02:30:52 435.350 FM
SPROUT 22 Oct 02:28:53 02:29:16 10° 266° (W) 02:29:39 437.525
RS-15 22 Oct 02:29:02 02:40:08 39° 307° (NW) 02:51:22 29.354- 29.394
M-CUBED/EXP-1 PRIME 22 Oct 02:44:19 02:47:53 42° 105° (ESE) 02:51:43 437.505
DX 1 22 Oct 02:47:39 02:51:44 42° 260° (W) 02:55:51 434.975-435.025
Gurwin Techsat 1B 22 Oct 03:01:02 03:06:20 68° 102° (ESE) 03:11:36 435.225
UKube-1 22 Oct 03:08:02 03:12:02 39° 260° (W) 03:16:04 .
AO-7 22 Oct 03:14:24 03:17:34 12° 94° (E) 03:20:42 .
ITUPSAT 1 22 Oct 03:20:05 03:23:59 25° 71° (ENE) 03:27:53 437.325
BEESAT 22 Oct 03:33:50 03:38:11 37° 73° (ENE) 03:42:35 436.000
Oscar 19 22 Oct 03:56:06 03:59:52 21° 291° (WNW) 04:03:37 437.125/150
NO-84 22 Oct 04:01:59 04:04:21 14° 320° (NW) 04:06:42 435.350 FM
MOZHAYETS 4 22 Oct 04:10:13 04:14:50 72° 258° (WSW) 04:19:28
CUBESAT XI-V 22 Oct 04:26:52 04:30:55 31° 73° (ENE) 04:34:57 437.345
ITAMSAT 1 22 Oct 04:31:44 04:36:38 40° 99° (E) 04:41:30 435.822/435.867
JUGNU 22 Oct 04:36:31 04:40:33 19° 164° (SSE) 04:44:33 437.505
Gurwin Techsat 1B 22 Oct 04:44:08 04:45:37 11° 295° (WNW) 04:47:07 435.225
ITUPSAT 1 22 Oct 04:57:47 05:01:38 24° 263° (W) 05:05:31 437.325
AO-7 22 Oct 05:02:37 05:10:57 89° 107° (ESE) 05:19:18 .
BEESAT 22 Oct 05:13:04 05:16:00 16° 265° (W) 05:18:55 436.000
KKS-1 22 Oct 05:24:25 05:28:27 36° 74° (ENE) 05:32:31 437.445
STARS 22 Oct 05:52:07 05:55:51 28° 72° (ENE) 05:59:35 437.465
CUBESAT XI-V 22 Oct 06:05:06 06:08:14 18° 264° (W) 06:11:22 437.345
DOVE 4 22 Oct 06:10:45 06:15:47 56° 100° (E) 06:20:58 437.250
ITAMSAT 1 22 Oct 06:12:13 06:15:43 18° 292° (WNW) 06:19:13 435.822/435.867
JUGNU 22 Oct 06:23:56 06:29:05 31° 172° (S) 06:34:13 437.505
SO-50 22 Oct 06:33:17 06:37:44 73° 115° (ESE) 06:42:11 436.795
XW-2C 22 Oct 06:34:30 06:36:47 15° 96° (E) 06:39:03 145.795 - 145.815
O/OREOS (USA 219) 22 Oct 06:43:17 06:47:15 28° 67° (ENE) 06:51:10 437.305
CUTE-I 22 Oct 06:54:33 06:59:05 27° 98° (E) 07:03:36 437.470
AO-7 22 Oct 06:58:16 07:02:36 15° 302° (WNW) 07:06:57 .
KKS-1 22 Oct 07:02:48 07:05:03 14° 265° (W) 07:07:17 437.445
SRMSAT 22 Oct 07:03:55 07:07:14 15° 162° (SSE) 07:10:34 437.500
KAITUO 1B 22 Oct 07:11:24 07:14:49 35° 99° (E) 07:18:13 145.475/437.950
XW-2F 22 Oct 07:16:23 07:20:03 59° 100° (E) 07:23:43 145.980 - 146.000
NUDT-PHONESAT 22 Oct 07:22:11 07:25:44 49° 100° (E) 07:29:16 437.300
LilacSat-2 22 Oct 07:25:44 07:29:29 82° 282° (WNW) 07:33:14 437.200
STARS 22 Oct 07:29:10 07:32:07 18° 264° (W) 07:35:04 437.465
XW-2D 22 Oct 07:30:20 07:34:03 73° 284° (WNW) 07:37:46 145.860 - 145.880
STRAND 1 22 Oct 07:40:40 07:45:23 39° 73° (ENE) 07:50:08 437.568
XW-2B 22 Oct 07:43:58 07:47:34 47° 284° (WNW) 07:51:09 145.730 - 145.750
DOVE 4 22 Oct 07:50:33 07:52:57 13° 291° (WNW) 07:55:24 437.250
CUBEBUG 2 22 Oct 07:51:14 07:54:04 16° 94° (E) 07:56:48 437.445
PCSat 22 Oct 08:00:19 08:05:37 62° 111° (ESE) 08:10:58 145.827
CUTE 1.7 + AOD 2 22 Oct 08:04:59 08:09:00 45° 99° (E) 08:13:02 437.475
XW-2C 22 Oct 08:07:57 08:10:51 22° 287° (WNW) 08:13:45 145.795 - 145.815
SEEDS 22 Oct 08:08:33 08:12:08 28° 98° (E) 08:15:43 437.485
JUGNU 22 Oct 08:12:25 08:17:42 35° 183° (S) 08:22:59 437.505
O/OREOS (USA 219) 22 Oct 08:23:13 08:26:23 19° 260° (W) 08:29:32 437.305
UWE-3 22 Oct 08:24:33 08:27:56 21° 96° (E) 08:31:14 435.000/436.395/437.385
XW-2A 22 Oct 08:25:17 08:27:50 20° 97° (E) 08:30:23 145.665 - 145.685
AAUSAT CUBESAT 2 22 Oct 08:26:55 08:29:48 18° 96° (E) 08:32:40 437.432
nSIGHT-1 22 Oct 08:33:45 08:36:38 32° 129° (SE) 08:39:33 .
HO-68 22 Oct 08:33:59 08:41:14 84° 105° (ESE) 08:48:25 435.675
CUTE-I 22 Oct 08:34:29 08:38:57 27° 290° (WNW) 08:43:25 437.470
YUBILEINY 22 Oct 08:45:36 08:51:56 23° 84° (E) 08:58:15 435.215
SRMSAT 22 Oct 08:50:54 08:55:55 29° 170° (S) 09:00:55 437.500
AO-73 22 Oct 09:09:51 09:13:42 33° 98° (E) 09:17:28 145.935
ISS 22 Oct 09:11:24 09:14:38 88° 310° (NW) 09:17:52 437.550
STRAND 1 22 Oct 09:21:17 09:24:36 17° 265° (W) 09:27:57 437.568
CUBEBUG 2 22 Oct 09:26:39 09:30:40 31° 287° (WNW) 09:34:34 437.445
RS-15 22 Oct 09:27:16 09:37:40 34° 51° (NE) 09:47:31 29.354- 29.394
ZACube-1 22 Oct 09:32:50 09:37:08 80° 100° (E) 09:41:19 437.345
CUTE 1.7 + AOD 2 22 Oct 09:43:48 09:44:22 10° 291° (WNW) 09:44:55 437.475
SEEDS 22 Oct 09:44:57 09:47:32 16° 289° (WNW) 09:50:07 437.485
FO-29 22 Oct 09:45:24 09:50:35 83° 258° (WSW) 09:56:03 435.910
PCSat 22 Oct 09:46:33 09:49:22 14° 306° (NW) 09:52:12 145.827
XW-2A 22 Oct 09:58:52 10:00:17 12° 289° (WNW) 10:01:42 145.665 - 145.685
UWE-3 22 Oct 10:00:47 10:04:14 22° 289° (WNW) 10:07:35 435.000/436.395/437.385
JUGNU 22 Oct 10:01:32 10:06:17 26° 192° (SSW) 10:11:02 437.505
AAUSAT CUBESAT 2 22 Oct 10:01:49 10:05:08 24° 287° (WNW) 10:08:27 437.432
UNISAT 6 22 Oct 10:03:44 10:07:55 35° 74° (ENE) 10:12:10 437.425
Oscar 11 22 Oct 10:05:51 10:10:07 69° 283° (WNW) 10:14:22 .
Max Valier Satellite 22 Oct 10:05:59 10:06:13 10° 94° (E) 10:06:28 145.860
nSIGHT-1 22 Oct 10:11:03 10:12:58 15° 322° (NW) 10:14:53 .
TIGRISAT 22 Oct 10:17:40 10:22:04 46° 75° (ENE) 10:26:33 435.000
HO-68 22 Oct 10:24:39 10:28:01 14° 299° (WNW) 10:31:22 435.675
PRISM 22 Oct 10:30:52 10:34:13 26° 73° (ENE) 10:37:36 437.425
SRMSAT 22 Oct 10:39:19 10:44:40 36° 180° (S) 10:50:02 437.500
NO-84 22 Oct 10:39:29 10:42:26 22° 43° (NE) 10:45:11 435.350 FM
YUBILEINY 22 Oct 10:39:32 10:47:59 57° 278° (W) 10:56:32 435.215
AO-73 22 Oct 10:47:19 10:49:33 14° 291° (WNW) 10:51:47 145.935
DELFI C3 22 Oct 11:09:21 11:13:14 56° 283° (WNW) 11:17:07 145.870
BEESAT 3 22 Oct 11:09:57 11:13:09 24° 110° (ESE) 11:16:23 437.485
EO-88 22 Oct 11:21:40 11:25:17 79° 282° (WNW) 11:28:53 145.990 - 145.960
Max Valier Satellite 22 Oct 11:36:49 11:40:04 30° 285° (WNW) 11:43:17 145.860
RS-15 22 Oct 11:39:12 11:50:31 59° 250° (WSW) 12:01:16 29.354- 29.394
UNISAT 6 22 Oct 11:41:47 11:44:37 16° 265° (W) 11:47:31 437.425
JUGNU 22 Oct 11:52:24 11:54:46 12° 200° (SSW) 11:57:07 437.505
TIGRISAT 22 Oct 11:57:10 11:58:54 12° 267° (W) 12:00:38 435.000
AO-85 22 Oct 11:58:01 11:59:34 12° 109° (ESE) 12:01:08 145.980
AIST 2D 22 Oct 12:04:25 12:07:56 82° 259° (W) 12:11:26 435.315
LO-87 22 Oct 12:04:26 12:07:43 32° 98° (E) 12:10:58 145.935 - 145.965
PRISM 22 Oct 12:06:56 12:09:25 16° 264° (W) 12:11:55 437.425
EO-79 22 Oct 12:09:59 12:13:47 33° 73° (ENE) 12:17:37 145.935-145.965
POLYITAN 1 22 Oct 12:15:11 12:19:08 38° 74° (ENE) 12:23:07 437.675
NO-84 22 Oct 12:16:58 12:19:38 20° 239° (WSW) 12:22:08 435.350 FM
ESTCUBE 1 22 Oct 12:27:01 12:31:18 44° 100° (E) 12:35:34 437.505/2401.250
SRMSAT 22 Oct 12:28:23 12:33:27 29° 190° (S) 12:38:31 437.500
BEESAT 2 22 Oct 12:35:00 12:38:57 73° 115° (ESE) 12:42:58 435.950
QB50P2 22 Oct 12:35:18 12:39:33 82° 80° (E) 12:43:50 145.880/145.840
NANOSAT C BR1 22 Oct 12:36:15 12:40:27 64° 77° (ENE) 12:44:41 145.865
SPROUT 22 Oct 12:43:02 12:45:00 13° 94° (E) 12:46:56 437.525
DUCHIFAT 1 22 Oct 12:45:41 12:49:54 73° 76° (ENE) 12:54:08 145.980
BUGSAT 1 22 Oct 12:46:30 12:48:53 15° 70° (ENE) 12:51:16 437.445
BEESAT 3 22 Oct 12:47:40 12:50:35 19° 303° (WNW) 12:53:32 437.485
M-CUBED/EXP-1 PRIME 22 Oct 13:25:53 13:27:46 14° 68° (ENE) 13:29:36 437.505
Oscar 19 22 Oct 13:26:56 13:31:05 25° 70° (ENE) 13:35:14 437.125/150
AO-85 22 Oct 13:36:06 13:39:35 31° 301° (WNW) 13:43:05 145.980
VELOX 1 22 Oct 13:43:03 13:47:23 50° 100° (E) 13:51:41 145.980
EO-79 22 Oct 13:47:18 13:49:32 14° 265° (W) 13:51:48 145.935-145.965
POLYITAN 1 22 Oct 13:53:20 13:54:59 12° 266° (W) 13:56:38 437.675
ESTCUBE 1 22 Oct 14:05:53 14:07:39 12° 292° (WNW) 14:09:25 437.505/2401.250
AO-7 22 Oct 14:09:31 14:10:49 10° 55° (NE) 14:12:08 .
Gurwin Techsat 1B 22 Oct 14:15:26 14:20:36 56° 74° (ENE) 14:25:47 435.225
SPROUT 22 Oct 14:17:00 14:20:55 36° 286° (WNW) 14:24:49 437.525
SRMSAT 22 Oct 14:18:36 14:22:08 16° 198° (SSW) 14:25:40 437.500
BUGSAT 1 22 Oct 14:20:12 14:23:53 31° 262° (W) 14:27:38 437.445
DX 1 22 Oct 14:41:58 14:46:15 53° 101° (E) 14:50:31 434.975-435.025
M-CUBED/EXP-1 PRIME 22 Oct 14:59:29 15:02:01 19° 257° (WSW) 15:04:29 437.505
UKube-1 22 Oct 15:01:06 15:05:20 54° 101° (E) 15:09:33 .
Oscar 19 22 Oct 15:05:50 15:10:12 28° 262° (W) 15:14:35 437.125/150
SO-50 22 Oct 15:12:44 15:14:36 12° 52° (NE) 15:16:28 436.795
50 SAT 22 Oct 15:19:25 15:22:09 24° 286° (WNW) 15:24:52 437.505
VELOX 1 22 Oct 15:22:17 15:23:18 11° 292° (WNW) 15:24:20 145.980
ITUPSAT 1 22 Oct 15:29:42 15:30:30 10° 94° (E) 15:31:19 437.325
BEESAT 22 Oct 15:41:36 15:44:32 16° 96° (E) 15:47:26 436.000
ITAMSAT 1 22 Oct 15:43:22 15:47:53 31° 71° (ENE) 15:52:26 435.822/435.867
AO-7 22 Oct 15:53:54 16:02:07 70° 70° (ENE) 16:10:20 .
Gurwin Techsat 1B 22 Oct 15:58:32 16:00:45 13° 266° (W) 16:02:58 435.225
MOZHAYETS 4 22 Oct 16:11:56 16:16:17 44° 99° (E) 16:20:37
CUBESAT XI-V 22 Oct 16:31:29 16:33:29 13° 94° (E) 16:35:29 437.345
nSIGHT-1 22 Oct 16:42:07 16:44:38 21° 40° (NE) 16:47:09 .
SO-50 22 Oct 16:50:47 16:55:21 59° 246° (WSW) 16:59:58 436.795
PCSat 22 Oct 16:57:01 16:59:29 13° 54° (NE) 17:01:55 145.827
ITUPSAT 1 22 Oct 17:03:52 17:08:31 54° 285° (WNW) 17:13:09 437.325
DOVE 4 22 Oct 17:10:53 17:14:06 22° 71° (ENE) 17:17:24 437.250
BEESAT 22 Oct 17:17:58 17:22:19 36° 287° (WNW) 17:26:39 436.000
ISS 22 Oct 17:20:36 17:23:48 50° 46° (NE) 17:26:58 437.550
ITAMSAT 1 22 Oct 17:23:18 17:27:17 22° 263° (W) 17:31:17 435.822/435.867
KKS-1 22 Oct 17:23:43 17:25:29 12° 95° (E) 17:27:14 437.445
AO-7 22 Oct 17:49:52 17:55:15 19° 263° (W) 18:00:40 .
MOZHAYETS 4 22 Oct 17:51:02 17:52:59 13° 292° (WNW) 17:54:56
XW-2F 22 Oct 17:53:03 17:54:05 11° 70° (ENE) 17:55:07 145.980 - 146.000
LilacSat-2 22 Oct 18:01:52 18:04:30 18° 72° (ENE) 18:07:07 437.200
XW-2D 22 Oct 18:05:39 18:08:22 19° 72° (ENE) 18:11:05 145.860 - 145.880
CUBESAT XI-V 22 Oct 18:06:37 18:10:56 42° 286° (WNW) 18:15:17 437.345
CUTE-I 22 Oct 18:10:13 18:14:22 24° 70° (ENE) 18:18:33 437.470
nSIGHT-1 22 Oct 18:18:20 18:20:48 21° 233° (SW) 18:23:17 .
XW-2B 22 Oct 18:18:37 18:21:51 27° 74° (ENE) 18:25:04 145.730 - 145.750
